Regional Weather Roundup
Issued by NWS Goodland, KS

Home | Current Version | Previous Version | Graphics & Text | Print | Product List | Glossary On
Versions: 1 2 3 4 5 6 7 8 9 10 11 12 13 14 15 16 17 18 19 20 21 22 23 24 25 26 27 28 29 30 31 32 33 34 35 36 37 38 39 40 41 42 43 44 45 46 47 48 49 50
000
ASUS43 KGLD 201459
RWRGLD

GOODLAND FORECAST AREA HOURLY WEATHER ROUNDUP
NATIONAL WEATHER SERVICE GOODLAND KS
900 AM MDT SAT SEP 20 2014

...OFFICIAL OBSERVATIONS...

CITY           SKY/WX    TMP DP  RH WIND       PRES   REMARKS
GOODLAND KS    SUNNY     68  57  68 NE14      30.08R
HILL CITY KS   SUNNY     76  63  64 VRB7      29.96R
IMPERIAL NEB   SUNNY     70  51  51 N9        30.10R
MCCOOK NEB     SUNNY     73  53  49 NE18      30.02R
AKRON CO       SUNNY     66  49  54 NE17      30.18R
BURLINGTON CO  SUNNY     67  53  61 N17G26    30.12R
LIMON CO       SUNNY     65  49  56 N14G23    30.22R
$$

...UNOFFICIAL OBSERVATIONS...

CITY           SKY/WX    TMP DP  RH WIND       PRES   REMARKS
COLBY KS       SUNNY     72  64  78 N15       30.04R
GOVE KS          N/A     72  32  23 MISG        N/A
NORTON KS      SUNNY     73  57  56 N14       29.96S
SHARON SPRINGS   N/A     69  60  72 N15         N/A
WAKEENEY KS      N/A     74  63  69 MISG        N/A
TRENTON NEB      N/A     70  32  24 N13         N/A
$$


USA.gov is the U.S. government's official web portal to all federal, state and local government web resources and services.